Theta_e
316 316 314 309 306 304 300 298 298 297 297 297 298 299 300 300 301 306 312 311 309 307 308 311 313 312 313 311 313 315 312 315 316 319 316 312 311 311 312 312 312 313 311 310 311
317 316 315 315 312 308 304 300 299 297 297 297 297 298 299 301 303 309 310 310 307 307 308 311 311 310 307 310 311 312 311 315 315 313 311 311 308 309 308 308 310 312 311 311 311
321 318 317 317 316 315 309 303 300 299 297 297 297 298 299 301 313 312 310 308 308 308 308 309 310 310 309 308 308 312 312 313 312 311 308 307 307 308 308 308 310 309 309 310 310
322 321 319 318 317 317 316 312 304 300 298 297 297 298 300 307 312 311 309 308 305 306 308 309 308 309 310 309 309 312 311 312 312 308 308 307 308 308 309 308 309 309 309 308 308
323 323 321 321 320 318 317 315 311 302 298 297 297 298 301 313 314 310 308 305 306 308 308 308 307 308 308 308 308 312 312 312 311 308 309 309 308 308 307 307 308 309 308 308 309
323 323 322 321 321 321 321 317 315 305 299 297 297 299 311 312 312 309 307 308 307 308 308 308 307 308 307 308 308 309 308 308 309 309 309 309 308 309 308 307 309 310 307 308 308
322 322 322 322 322 320 321 321 318 311 301 297 297 302 309 307 314 309 308 307 308 308 308 308 309 308 307 308 310 309 308 307 307 308 309 307 306 306 307 309 309 308 308 308 312
319 320 321 321 321 320 320 320 320 317 304 299 298 302 308 310 312 311 310 308 308 308 308 307 308 308 308 308 309 310 307 305 307 307 307 306 306 308 308 307 308 308 308 309 313
315 318 319 319 320 320 319 318 318 318 311 298 301 306 311 314 311 312 310 309 309 308 308 308 307 307 308 308 307 306 305 306 308 307 307 306 306 307 307 308 308 307 310 312 311
309 311 315 318 319 319 318 317 317 316 312 303 304 306 308 315 313 311 311 309 308 308 308 307 305 306 306 306 305 307 307 308 308 307 306 305 306 306 306 308 306 309 312 311 310
306 309 310 314 317 318 316 316 309 307 304 311 310 309 317 314 314 309 309 308 307 307 306 307 305 305 305 306 308 308 309 307 307 307 307 306 306 304 305 306 308 310 311 309 308
307 308 309 308 315 316 314 307 306 305 313 311 310 312 313 314 313 308 308 306 306 306 307 307 307 308 309 309 309 309 307 306 307 307 306 306 305 303 305 307 310 310 308 307 307
306 307 308 308 313 312 311 307 306 305 307 310 311 314 313 314 315 310 307 306 307 306 307 307 309 310 311 309 309 308 307 306 307 305 305 305 303 305 307 312 311 309 308 307 306
303 307 307 308 310 309 306 311 309 311 317 318 315 316 316 315 317 316 310 307 307 307 308 308 310 310 309 309 308 307 307 306 306 304 303 304 303 306 308 313 311 308 306 306 305
301 307 306 307 309 307 311 312 311 311 322 319 320 319 317 316 314 316 313 308 308 308 309 309 309 309 309 309 308 307 307 306 306 303 303 304 304 304 307 313 310 307 307 305 304
301 304 306 307 307 307 309 307 308 314 319 319 316 317 319 318 317 314 313 309 308 308 309 309 308 307 308 309 307 305 304 305 304 303 305 306 307 306 307 311 309 308 306 305 304
301 303 306 305 306 307 305 306 313 315 315 312 318 314 315 320 319 316 312 312 308 308 309 309 309 308 308 306 305 304 303 304 306 306 308 310 310 309 310 309 308 307 305 304 303
301 302 303 306 306 307 304 309 315 313 313 317 318 316 313 314 315 316 313 312 308 307 308 309 308 307 306 306 305 304 303 306 314 313 312 311 307 311 309 308 307 306 304 304 302
301 302 303 304 306 304 307 310 310 312 312 312 312 318 316 311 315 315 313 308 309 308 309 310 310 307 307 306 306 306 304 306 310 310 308 306 310 310 309 308 307 306 304 303 302
302 303 303 304 305 303 307 307 310 311 312 312 315 317 317 313 312 313 311 309 308 308 308 312 312 308 306 305 305 304 307 307 307 309 308 308 309 311 311 309 307 305 304 303 302
301 302 303 305 304 304 306 306 306 308 309 313 313 317 315 313 311 311 311 309 308 309 308 309 312 309 305 304 304 304 307 308 309 310 312 310 312 310 309 307 306 305 304 303 301
301 302 304 304 304 303 305 305 306 306 307 309 312 314 316 314 313 312 312 310 308 308 309 310 312 311 306 305 305 304 306 309 307 309 309 307 310 308 306 306 305 305 304 302 300
298 302 303 304 304 304 304 305 305 306 306 309 311 314 314 314 315 313 313 310 307 308 310 307 308 309 309 306 305 304 305 306 309 310 309 311 311 308 307 305 305 303 302 301 300
298 301 301 304 303 303 303 304 306 306 307 308 310 312 313 313 313 312 314 311 308 308 312 309 308 309 311 310 306 305 305 306 308 309 309 309 311 309 307 306 304 302 301 300 299
297 299 302 303 303 303 304 304 305 306 306 307 308 311 313 315 312 311 311 311 307 309 307 308 308 308 308 308 308 306 306 305 308 309 309 309 307 308 306 304 303 302 301 300 299
297 298 301 303 302 303 303 304 304 306 306 307 308 308 311 313 312 311 311 309 309 307 307 307 308 306 307 307 307 304 307 306 305 307 308 307 306 306 304 303 302 301 301 300 299
297 297 298 300 304 303 303 302 303 303 304 305 307 307 309 312 310 310 309 309 307 305 306 305 306 306 308 307 307 305 303 304 306 308 307 306 307 305 304 304 302 300 300 299 298
Wind_Speed
9 10 10 10 10 11 12 13 14 15 16 17 17 19 21 23 23 10 5 3 3 6 10 14 16 18 17 5 5 1 3 4 7 4 3 8 8 7 2 3 5 7 8 6 16
10 10 10 10 10 11 11 13 15 16 18 19 19 19 20 23 23 12 11 8 4 6 8 12 10 14 3 5 4 4 3 6 1 4 6 7 8 6 6 7 6 7 11 17 13
12 12 11 12 12 13 13 12 14 16 18 20 21 23 21 21 6 2 9 5 2 3 5 14 19 8 6 6 6 5 6 4 1 7 7 5 6 7 4 4 5 7 5 5 11
14 13 14 14 13 12 13 14 16 16 17 19 22 24 23 6 3 3 6 4 3 3 4 9 7 4 4 6 9 5 7 2 1 5 4 2 2 6 2 4 8 8 5 6 9
16 14 16 16 15 15 14 14 14 15 16 17 19 21 13 4 8 5 5 4 4 2 8 6 6 5 5 7 9 2 4 6 3 6 2 2 2 4 7 6 9 7 7 7 6
18 16 16 17 17 15 16 17 15 15 16 15 16 17 3 6 5 5 3 5 7 9 12 8 4 4 4 5 5 5 7 7 4 4 4 2 3 1 5 7 7 5 7 6 9
18 18 16 16 18 18 16 18 17 15 15 14 14 10 6 13 11 8 6 8 11 12 4 12 4 4 7 7 6 7 6 8 9 7 3 6 8 7 7 8 6 8 7 8 17
17 20 20 19 17 17 17 19 17 15 15 11 13 5 7 14 13 19 18 11 10 7 8 12 5 4 2 5 6 5 4 4 8 9 4 10 5 3 9 8 6 7 8 11 18
15 15 17 19 19 17 18 17 17 16 16 11 7 4 9 9 11 18 12 10 12 8 6 10 3 4 5 2 4 4 5 8 4 7 7 5 6 6 6 7 8 9 9 15 14
13 14 15 15 17 16 15 14 16 17 7 6 8 5 9 6 14 17 14 12 4 5 4 3 3 2 0 3 5 5 9 8 7 8 7 7 7 7 7 1 10 10 14 13 12
10 11 15 14 12 16 13 4 4 2 7 10 9 7 12 9 6 7 14 6 4 3 6 5 3 7 9 10 13 11 5 5 2 4 5 6 5 10 9 6 10 13 13 13 8
9 8 9 13 10 14 8 4 3 4 6 14 21 19 29 21 9 7 11 6 6 9 5 6 9 11 12 7 1 4 4 6 7 5 3 3 5 12 5 5 13 15 12 10 8
7 8 8 8 9 12 8 4 9 1 3 7 12 14 13 23 18 11 12 9 6 9 10 11 10 16 10 5 4 4 4 6 5 5 1 4 5 8 5 17 17 12 9 9 9
8 5 7 3 7 7 5 11 6 4 4 6 8 10 14 15 14 27 22 12 8 12 11 10 15 12 4 4 6 4 4 6 4 4 3 6 5 5 12 13 14 10 11 8 8
8 7 5 7 7 6 4 16 10 2 5 5 6 7 6 17 6 16 27 12 16 12 7 8 3 5 7 6 6 3 7 3 4 4 4 6 4 7 10 9 11 9 11 8 6
9 8 7 9 5 4 11 19 8 3 11 6 6 6 8 17 13 3 11 8 10 10 13 9 6 7 7 3 1 7 5 3 4 2 4 14 10 5 5 15 9 11 10 7 5
11 9 13 11 4 11 18 10 4 8 4 13 8 6 8 11 21 13 8 18 11 13 16 11 15 4 6 4 5 5 5 2 2 2 6 6 9 2 10 13 15 13 8 5 4
14 14 15 18 14 17 16 3 10 9 20 3 4 5 12 11 14 18 10 14 19 7 3 10 5 10 5 7 7 7 8 5 6 4 3 6 4 5 14 14 14 11 7 4 7
15 17 19 21 17 29 6 10 9 10 12 18 23 11 9 15 8 14 18 11 14 15 9 8 10 4 10 6 8 5 5 6 1 3 1 3 6 7 13 12 11 11 10 8 7
18 11 19 22 25 23 7 13 8 9 11 13 23 8 13 15 13 12 9 11 15 15 13 4 1 4 7 6 5 4 1 3 1 3 5 5 8 6 11 11 10 7 6 6 5
18 4 8 27 30 6 11 10 15 18 10 7 11 12 8 9 16 12 9 5 14 12 14 9 4 1 6 4 7 2 2 4 4 4 4 0 2 7 12 10 9 7 5 2 2
5 7 12 36 8 4 10 20 16 15 18 15 6 5 13 7 4 13 11 8 5 5 16 8 4 5 9 8 9 5 7 6 4 3 3 4 1 6 11 10 8 5 1 2 4
3 4 19 25 10 7 7 19 18 12 19 13 14 10 8 10 5 3 1 3 9 6 3 6 4 4 3 2 1 4 9 11 6 2 4 4 3 7 8 8 6 6 6 5 5
3 4 5 9 5 18 15 16 21 18 21 17 11 11 6 6 7 4 6 2 5 5 13 6 2 6 11 2 5 5 9 11 12 5 4 4 9 8 6 6 6 4 5 4 6
7 6 5 6 16 11 17 14 23 16 18 14 10 15 10 7 11 9 7 6 5 4 5 4 3 4 4 9 13 7 8 16 10 10 8 8 7 9 7 6 6 3 1 6 10
7 7 5 3 18 23 21 18 17 21 10 23 18 20 15 18 14 15 7 6 5 3 5 4 8 2 13 14 13 12 10 11 14 9 11 8 3 8 7 7 6 5 9 10 10
20 18 8 9 7 17 19 26 28 22 21 21 20 14 17 21 15 9 8 9 7 9 5 7 6 4 6 14 17 14 8 7 5 4 7 9 5 8 5 6 5 5 7 7 8
Wind_Direction
324 334 339 345 348 349 348 345 342 339 337 339 341 340 338 334 326 326 278 234 244 315 317 321 312 285 255 262 269 263 40 281 286 39 56 21 31 346 119 78 352 61 79 82 40
313 316 324 329 338 338 345 341 338 334 333 334 337 337 338 335 329 271 254 235 282 306 310 327 323 339 304 276 274 122 141 241 38 71 30 3 36 33 40 5 54 54 40 42 25
300 305 312 316 325 332 339 338 333 334 331 333 337 337 337 335 311 285 183 211 217 314 308 308 296 315 307 305 270 236 222 254 107 80 60 7 24 346 17 21 62 100 70 32 39
287 294 297 302 312 320 326 331 330 332 331 334 337 338 337 342 331 173 170 166 292 309 325 285 289 303 290 274 282 232 251 340 104 82 74 59 346 321 336 91 107 86 72 46 41
280 285 288 293 300 307 313 319 324 325 327 333 336 341 351 309 259 195 179 273 274 269 257 288 332 311 287 313 343 264 326 310 74 102 132 0 303 277 306 119 107 103 59 59 42
274 275 279 287 291 295 303 306 314 318 321 330 333 339 330 277 233 185 211 252 288 272 279 291 260 321 284 291 307 329 356 317 301 237 183 186 287 14 326 145 114 106 88 64 81
274 279 280 280 285 287 294 297 302 310 315 323 325 340 268 239 276 254 183 228 267 291 296 307 353 54 353 317 331 337 347 315 289 253 172 90 323 228 183 147 155 106 98 89 76
264 268 276 279 285 282 283 290 293 297 303 311 314 317 252 274 267 276 237 221 238 276 288 292 342 327 213 294 344 299 295 273 259 211 193 101 270 111 173 162 136 112 97 79 70
277 272 266 276 281 285 283 286 296 291 291 297 306 222 265 273 242 246 231 233 233 209 278 287 358 234 339 187 328 248 250 228 243 107 131 124 250 245 245 181 130 102 87 68 56
284 283 283 268 274 281 285 288 297 291 283 268 250 323 259 240 231 228 241 225 268 159 255 195 260 247 258 130 222 219 224 266 189 192 145 186 233 289 297 156 134 104 79 64 46
303 283 274 276 261 277 278 345 271 285 233 194 191 223 291 232 258 189 205 189 244 198 208 219 179 226 220 217 237 260 276 298 277 166 129 195 231 266 283 136 105 83 72 60 43
321 302 294 291 252 263 245 142 307 146 302 251 258 258 269 279 288 197 212 173 192 219 230 274 233 236 244 250 246 291 295 301 304 115 109 237 263 263 251 136 101 91 74 64 36
295 298 299 301 242 212 182 195 165 263 270 267 237 242 227 225 248 214 192 195 205 211 228 216 240 210 266 173 209 261 255 274 255 338 356 281 300 273 152 107 90 82 90 72 57
287 278 286 266 191 191 175 196 205 154 348 269 230 246 214 217 242 232 203 185 209 228 223 238 242 226 196 226 186 227 70 23 21 42 241 84 286 299 154 103 90 86 74 66 49
283 281 256 212 151 166 229 187 175 171 260 254 216 189 185 187 129 204 201 195 205 216 197 232 249 184 184 200 227 226 83 27 326 307 325 292 277 230 170 120 116 99 82 65 37
257 262 231 198 220 158 161 154 154 144 225 254 219 218 200 197 216 94 192 200 202 239 253 234 263 161 171 203 155 110 65 300 253 202 270 226 206 253 250 140 115 101 87 68 32
250 235 208 214 204 201 171 147 188 203 216 244 233 206 222 196 213 209 203 200 189 211 230 244 235 176 149 122 78 81 85 313 338 196 230 240 193 302 108 103 106 103 90 68 21
247 240 233 221 212 186 165 198 214 213 220 252 192 239 208 216 227 204 224 212 207 199 177 213 213 166 153 171 166 178 158 178 225 190 284 235 210 174 116 103 98 102 118 79 24
242 246 241 227 195 177 177 225 215 226 226 235 269 266 253 226 223 185 219 226 213 200 195 197 230 139 161 145 153 221 193 221 318 270 116 221 77 102 115 94 77 65 47 29 8
234 232 236 212 192 171 217 220 215 232 293 272 227 231 222 229 219 189 194 224 220 207 207 284 137 139 132 125 233 142 243 88 334 214 231 227 174 172 123 103 89 83 65 21 351
231 227 249 197 174 205 211 216 222 238 255 267 259 250 253 228 218 201 206 212 204 213 211 217 104 262 99 182 157 157 263 219 180 188 204 231 90 112 116 112 100 69 58 302 9
262 217 186 167 198 186 205 205 222 227 230 245 285 290 241 269 273 236 225 177 88 220 206 176 145 202 203 175 207 205 200 191 136 260 236 145 144 99 104 101 107 110 29 3 18
215 221 188 175 213 195 209 213 233 222 233 219 219 196 246 253 245 208 270 161 113 61 182 171 186 144 123 320 252 201 222 217 204 130 230 141 168 131 101 102 95 69 352 353 348
178 229 220 201 179 209 200 219 216 226 237 232 254 245 256 248 220 250 244 54 23 106 58 59 142 169 219 134 166 220 221 235 207 203 180 205 126 133 119 110 101 86 304 352 359
190 221 241 207 197 201 210 204 213 224 218 232 253 236 233 236 250 219 214 194 121 76 76 98 20 12 306 332 288 211 231 228 227 205 190 214 145 135 148 135 124 107 303 15 9
215 204 203 278 200 202 209 218 217 226 219 219 228 235 227 239 221 240 188 213 177 121 106 180 210 225 274 267 284 277 223 222 239 226 214 179 178 137 136 126 113 53 26 15 3
217 236 239 233 222 203 213 217 215 222 218 224 220 231 237 234 239 248 221 199 169 147 140 152 153 146 237 229 266 265 223 231 214 234 200 213 151 122 101 97 94 60 39 6 6